When you browse on this site, cookies collect data to enhance your experience and personalize the content and advertising you see.
Visit our Privacy Policy to learn more. By continuing to use the site, you agree to this use of cookies and data.
  • In Hungary
  • List of Countries
  • For 7 days
  • Water Temperature
  • Satellite Maps
  • Weather Map
  • News
  • Weather Widgets
  • user-avatar
    Login

    Hourly Weather Limanowa

    Today, 19 January, Saturday

    Time Temperature Precipitation Wind Pressure Humidity
    00:00 -6°C° 0 mm 1 mps 725 mmHg 94%
    01:00 -7°C° 0 mm 1 mps 724 mmHg 94%
    02:00 -7°C° 0 mm 1 mps 724 mmHg 93%
    03:00 -8°C° 0 mm 1 mps 724 mmHg 92%
    04:00 -8°C° 0 mm 1 mps 725 mmHg 92%
    05:00 -8°C° 0 mm 1 mps 725 mmHg 90%
    06:00 -9°C° 0 mm 1 mps 725 mmHg 88%
    07:00 -9°C° 0 mm 1 mps 725 mmHg 85%
    08:00 -7°C° 0 mm 1 mps 725 mmHg 82%
    09:00 -6°C° 0 mm 1 mps 725 mmHg 79%
    10:00 -3°C° 0 mm 1 mps 725 mmHg 76%
    11:00 -2°C° 0 mm 1 mps 725 mmHg 73%
    12:00 -2°C° 0 mm 0 mps 725 mmHg 70%
    13:00 -1°C° 0 mm 0 mps 725 mmHg 67%
    14:00 -2°C° 0 mm 0 mps 725 mmHg 72%
    15:00 -4°C° 0 mm 0 mps 725 mmHg 76%
    16:00 -4°C° 0 mm 1 mps 724 mmHg 81%
    17:00 -6°C° 0 mm 1 mps 724 mmHg 82%
    18:00 -6°C° 0 mm 1 mps 724 mmHg 83%
    19:00 -7°C° 0 mm 1 mps 724 mmHg 84%
    20:00 -7°C° 0 mm 1 mps 724 mmHg 84%
    21:00 -7°C° 0 mm 1 mps 724 mmHg 83%
    22:00 -7°C° 0 mm 1 mps 724 mmHg 83%
    23:00 -7°C° 0 mm 1 mps 723 mmHg 82%

    Tomorrow, 20 January, Sunday

    Time Temperature Precipitation Wind Pressure Humidity
    00:00 -7°C° 0 mm 1 mps 723 mmHg 81%
    01:00 -8°C° 0 mm 1 mps 723 mmHg 80%
    02:00 -8°C° 0 mm 1 mps 723 mmHg 80%
    03:00 -8°C° 0 mm 1 mps 722 mmHg 79%
    04:00 -8°C° 0 mm 0 mps 722 mmHg 78%
    05:00 -7°C° 0 mm 0 mps 722 mmHg 78%
    06:00 -7°C° 0 mm 0 mps 722 mmHg 78%
    07:00 -7°C° 0 mm 0 mps 722 mmHg 78%
    08:00 -6°C° 0 mm 0 mps 722 mmHg 77%
    09:00 -5°C° 0 mm 0 mps 722 mmHg 77%
    10:00 -4°C° 0 mm 0 mps 722 mmHg 76%
    11:00 -4°C° 0 mm 0 mps 722 mmHg 77%
    12:00 -2°C° 0 mm 1 mps 722 mmHg 77%
    13:00 -2°C° 0 mm 1 mps 722 mmHg 77%
    14:00 -3°C° 0 mm 1 mps 721 mmHg 81%
    15:00 -3°C° 0 mm 1 mps 721 mmHg 85%
    16:00 -4°C° 0 mm 1 mps 721 mmHg 89%
    17:00 -6°C° 0 mm 1 mps 722 mmHg 90%
    18:00 -7°C° 0 mm 0 mps 722 mmHg 91%
    19:00 -7°C° 0 mm 0 mps 722 mmHg 92%
    20:00 -8°C° 0 mm 1 mps 723 mmHg 92%
    21:00 -8°C° 0 mm 1 mps 723 mmHg 92%
    22:00 -9°C° 0 mm 1 mps 723 mmHg 92%
    23:00 -9°C° 0 mm 1 mps 723 mmHg 91%

    Day after tomorrow, 21 January, Monday

    Time Temperature Precipitation Wind Pressure Humidity
    00:00 -9°C° 0 mm 1 mps 724 mmHg 90%
    01:00 -10°C° 0 mm 1 mps 724 mmHg 90%
    02:00 -10°C° 0 mm 1 mps 724 mmHg 89%
    03:00 -10°C° 0 mm 1 mps 724 mmHg 89%
    04:00 -10°C° 0 mm 1 mps 724 mmHg 88%
    05:00 -10°C° 0 mm 1 mps 724 mmHg 88%
    06:00 -10°C° 0 mm 1 mps 725 mmHg 87%
    07:00 -10°C° 0 mm 1 mps 725 mmHg 86%
    08:00 -9°C° 0 mm 1 mps 725 mmHg 84%
    09:00 -7°C° 0 mm 1 mps 725 mmHg 82%
    10:00 -5°C° 0 mm 0 mps 726 mmHg 80%
    11:00 -4°C° 0 mm 0 mps 725 mmHg 80%
    12:00 -3°C° 0 mm 0 mps 725 mmHg 79%
    13:00 -3°C° 0 mm 0 mps 725 mmHg 79%
    14:00 -4°C° 0 mm 0 mps 725 mmHg 83%
    15:00 -5°C° 0 mm 0 mps 724 mmHg 86%
    16:00 -6°C° 0 mm 0 mps 724 mmHg 90%
    17:00 -7°C° 0 mm 0 mps 724 mmHg 90%
    18:00 -7°C° 0 mm 1 mps 724 mmHg 91%
    19:00 -8°C° 0 mm 1 mps 724 mmHg 91%
    20:00 -8°C° 0 mm 1 mps 724 mmHg 90%
    21:00 -8°C° 0 mm 1 mps 723 mmHg 89%
    22:00 -8°C° 0 mm 1 mps 723 mmHg 89%
    23:00 -9°C° 0 mm 1 mps 723 mmHg 87%

    22 January, Tuesday

    Time Temperature Precipitation Wind Pressure Humidity
    00:00 -9°C° 0 mm 1 mps 722 mmHg 86%
    01:00 -9°C° 0 mm 1 mps 722 mmHg 84%
    02:00 -9°C° 0 mm 1 mps 722 mmHg 83%
    03:00 -9°C° 0 mm 1 mps 721 mmHg 82%
    04:00 -9°C° 0 mm 1 mps 721 mmHg 81%
    05:00 -9°C° 0 mm 1 mps 720 mmHg 80%
    06:00 -9°C° 0 mm 1 mps 720 mmHg 80%
    07:00 -9°C° 0 mm 1 mps 720 mmHg 79%
    08:00 -8°C° 0 mm 1 mps 720 mmHg 78%
    09:00 -6°C° 0 mm 1 mps 720 mmHg 77%
    10:00 -4°C° 0 mm 1 mps 719 mmHg 76%
    11:00 -4°C° 0 mm 0 mps 719 mmHg 74%
    12:00 -3°C° 0 mm 0 mps 719 mmHg 73%
    13:00 -1°C° 0 mm 0 mps 718 mmHg 71%
    14:00 -3°C° 0 mm 0 mps 718 mmHg 76%
    15:00 -4°C° 0 mm 0 mps 717 mmHg 80%
    16:00 -5°C° 0 mm 0 mps 717 mmHg 85%
    17:00 -6°C° 0 mm 0 mps 717 mmHg 86%
    18:00 -7°C° 0 mm 0 mps 717 mmHg 86%
    19:00 -7°C° 0 mm 1 mps 717 mmHg 87%
    20:00 -8°C° 0 mm 1 mps 716 mmHg 87%
    21:00 -8°C° 0 mm 1 mps 716 mmHg 87%
    22:00 -8°C° 0 mm 1 mps 716 mmHg 86%
    23:00 -8°C° 0 mm 1 mps 716 mmHg 86%

    23 January, Wednesday

    Time Temperature Precipitation Wind Pressure Humidity
    00:00 -9°C° 0 mm 1 mps 716 mmHg 86%
    01:00 -9°C° 0 mm 1 mps 716 mmHg 85%
    02:00 -9°C° 0 mm 1 mps 715 mmHg 86%
    03:00 -9°C° 0 mm 1 mps 715 mmHg 86%
    04:00 -10°C° 0 mm 1 mps 715 mmHg 86%
    05:00 -10°C° 0 mm 1 mps 715 mmHg 87%
    06:00 -10°C° 0 mm 1 mps 715 mmHg 88%
    07:00 -10°C° 0 mm 1 mps 715 mmHg 89%
    08:00 -8°C° 0 mm 1 mps 715 mmHg 87%
    09:00 -7°C° 0 mm 1 mps 716 mmHg 86%
    10:00 -6°C° 0 mm 1 mps 716 mmHg 85%
    11:00 -6°C° 0 mm 2 mps 716 mmHg 84%
    12:00 -5°C° 0 mm 2 mps 716 mmHg 84%
    13:00 -5°C° 0 mm 2 mps 715 mmHg 83%
    14:00 -6°C° 0 mm 2 mps 715 mmHg 85%
    15:00 -6°C° 0 mm 2 mps 715 mmHg 87%
    16:00 -7°C° 0 mm 2 mps 715 mmHg 90%
    17:00 -7°C° 0 mm 2 mps 716 mmHg 90%
    18:00 -8°C° 0 mm 2 mps 716 mmHg 91%
    19:00 -8°C° 0 mm 2 mps 717 mmHg 92%
    20:00 -8°C° 0 mm 2 mps 717 mmHg 92%
    21:00 -9°C° 0 mm 2 mps 717 mmHg 92%
    22:00 -9°C° 0 mm 2 mps 718 mmHg 93%
    23:00 -9°C° 0 mm 2 mps 718 mmHg 93%

    24 January, Thursday

    Time Temperature Precipitation Wind Pressure Humidity
    00:00 -9°C° 0 mm 2 mps 718 mmHg 93%
    01:00 -10°C° 0 mm 2 mps 718 mmHg 93%
    02:00 -10°C° 0 mm 2 mps 718 mmHg 93%
    03:00 -10°C° 0 mm 2 mps 718 mmHg 93%
    04:00 -10°C° 0 mm 2 mps 718 mmHg 93%
    05:00 -10°C° 0 mm 2 mps 718 mmHg 93%
    06:00 -12°C° 0 mm 2 mps 718 mmHg 93%
    07:00 -10°C° 0 mm 1 mps 719 mmHg 93%
    08:00 -10°C° 0 mm 2 mps 719 mmHg 92%
    09:00 -10°C° 0 mm 2 mps 719 mmHg 90%
    10:00 -9°C° 0 mm 2 mps 719 mmHg 89%
    11:00 -8°C° 0 mm 2 mps 719 mmHg 88%
    12:00 -8°C° 0 mm 2 mps 718 mmHg 87%
    13:00 -7°C° 0 mm 2 mps 718 mmHg 86%
    14:00 -8°C° 0 mm 2 mps 718 mmHg 87%
    15:00 -8°C° 0 mm 2 mps 718 mmHg 89%
    16:00 -9°C° 0 mm 2 mps 718 mmHg 90%
    17:00 -9°C° 0 mm 2 mps 718 mmHg 91%
    18:00 -9°C° 0 mm 2 mps 719 mmHg 91%
    19:00 -9°C° 0 mm 1 mps 719 mmHg 91%
    20:00 -10°C° 0 mm 2 mps 719 mmHg 92%
    21:00 -10°C° 0 mm 2 mps 719 mmHg 92%
    22:00 -10°C° 0 mm 2 mps 719 mmHg 92%
    23:00 -12°C° 0 mm 2 mps 719 mmHg 92%
    Show more